Weather History for KUIL - February, 2013

Change the Weather History Date:

Wednesday, February 6, 2013

  Actual Average Record
Temperature  
Mean Temperature 45 °F 42 °F  
Max Temperature 47 °F 49 °F 62 °F (1987)
Min Temperature 42 °F 35 °F 19 °F (1989)
Degree Days  
Heating Degree Days 20 23  
Month to date heating degree days 119 138  
Since 1 July heating degree days 3227 3343  
Cooling Degree Days 0 0  
Month to date cooling degree days 0 0  
Year to date cooling degree days 0 0  
Moisture  
Dew Point 41 °F    
Average Humidity 83    
Maximum Humidity 89    
Minimum Humidity 76    
Precipitation  
Precipitation 0.73 in 0.39 in 2.04 in (2002)
Month to date precipitation 1.87 2.34  
Year to date precipitation 12.21 16.95  
Sea Level Pressure  
Sea Level Pressure 29.83 in    
Wind  
Wind Speed 9 mph (SSE)    
Max Wind Speed 22 mph    
Max Gust Speed 35 mph    
Visibility 3 miles    
Events Rain    
T = Trace of Precipitation, MM = Missing Value Source: NWS Daily Summary

Daily Weather History Graph

Daily Weather History Graph

Search for Another Location

Airport or City:

Trip Planner

Search our weather history database for the weather conditions in past years. The results will help you decide how hot, cold, wet, or windy it might be!

Date:

Astronomy

Feb. 06, 2013 Rise Set
Actual Time 7:38 AM PST 5:27 PM PST
Civil Twilight 7:05 AM PST 5:59 PM PST
Nautical Twilight 6:28 AM PST 6:36 PM PST
Astronomical Twilight 5:52 AM PST 7:12 PM PST
Moon 4:36 AM PST (2/6) 1:43 PM PST (2/6)
Length of Visible Light 10h 54m
Length of Day
9h 49m
Waning Crescent, 16% of the Moon is Illuminated
Feb 6
Waning Crescent
Feb 9
New
Feb 17
First Quarter
Feb 25
Full
Mar 4
Last Quarter

Hourly Weather History & Observations

Time (PST) Temp. Windchill Dew Point Humidity Pressure Visibility Wind Dir Wind Speed Gust Speed Precip Events Conditions
12:53 AM 46.0 °F 42.5 °F 41.0 °F 83% 29.92 in 4.0 mi SW 6.9 mph - N/A   Haze
5:53 AM 44.1 °F 42.5 °F 39.0 °F 82% 29.96 in 5.0 mi South 3.5 mph - 0.04 in   Haze
6:18 AM 44.6 °F - 39.2 °F 81% 29.96 in 4.0 mi Calm Calm - N/A   Haze
6:53 AM 44.1 °F 42.5 °F 39.0 °F 82% 29.96 in 4.0 mi SE 3.5 mph - N/A   Haze
7:53 AM 44.1 °F 40.8 °F 39.9 °F 85% 29.95 in 4.0 mi SE 5.8 mph - N/A   Overcast
8:07 AM 44.6 °F 42.2 °F 39.2 °F 81% 29.95 in 1.8 mi Variable 4.6 mph - 0.00 in Rain Light Rain
8:17 AM 44.6 °F 40.7 °F 39.2 °F 81% 29.95 in 1.2 mi SSE 6.9 mph - 0.02 in Rain Light Rain
8:22 AM 44.6 °F 40.2 °F 39.2 °F 81% 29.95 in 2.0 mi SSE 8.1 mph - 0.02 in Rain Light Rain
8:30 AM 44.6 °F 42.2 °F 39.2 °F 81% 29.95 in 1.8 mi Variable 4.6 mph - 0.02 in Rain Light Rain
8:42 AM 44.6 °F 40.7 °F 39.2 °F 81% 29.95 in 3.0 mi SSE 6.9 mph - 0.03 in   Haze
8:53 AM 45.0 °F 41.8 °F 39.9 °F 82% 29.95 in 3.0 mi SSE 5.8 mph - 0.03 in   Haze
9:06 AM 44.6 °F 40.7 °F 39.2 °F 81% 29.95 in 3.0 mi SSE 6.9 mph - N/A   Haze
9:29 AM 44.6 °F 39.2 °F 39.2 °F 81% 29.95 in 4.0 mi SSE 10.4 mph - N/A   Haze
9:53 AM 46.4 °F 42.4 °F 39.2 °F 76% 29.95 in 4.0 mi SE 8.1 mph - N/A   Haze
10:06 AM 46.4 °F 41.9 °F 41.0 °F 81% 29.94 in 1.8 mi SSE 9.2 mph 19.6 mph 0.00 in Rain Light Rain
10:17 AM 44.6 °F 40.2 °F 41.0 °F 87% 29.94 in 1.0 mi SSE 8.1 mph - 0.02 in Rain Light Rain
10:26 AM 44.6 °F 42.2 °F 41.0 °F 87% 29.94 in 2.0 mi Variable 4.6 mph - 0.03 in Rain Light Rain
10:45 AM 44.6 °F 40.2 °F 41.0 °F 87% 29.94 in 2.5 mi SSE 8.1 mph 16.1 mph 0.03 in Rain Light Rain
10:53 AM 46.0 °F 41.0 °F 41.0 °F 83% 29.94 in 2.5 mi SE 10.4 mph - 0.03 in Rain Light Rain
11:04 AM 46.4 °F 41.9 °F 41.0 °F 81% 29.93 in 4.0 mi SE 9.2 mph - N/A Rain Light Rain
11:53 AM 46.0 °F 43.1 °F 41.0 °F 83% 29.92 in 4.0 mi SSE 5.8 mph - 0.00 in   Haze
12:06 PM 46.4 °F 41.9 °F 41.0 °F 81% 29.91 in 2.5 mi SSE 9.2 mph - 0.00 in Rain Light Rain
12:22 PM 46.4 °F 40.4 °F 41.0 °F 81% 29.90 in 5.0 mi SE 13.8 mph 19.6 mph 0.01 in   Haze
12:45 PM 46.4 °F 41.9 °F 41.0 °F 81% 29.90 in 4.0 mi SE 9.2 mph 19.6 mph 0.01 in Rain Light Rain
12:53 PM 46.9 °F - 41.0 °F 80% 29.90 in 3.0 mi SE 12.7 mph 21.9 mph 0.01 in Rain Light Rain
1:01 PM 46.4 °F 42.9 °F 41.0 °F 81% 29.89 in 2.5 mi Variable 6.9 mph 21.9 mph 0.00 in Rain Light Rain
1:17 PM 46.4 °F 41.9 °F 41.0 °F 81% 29.89 in 1.8 mi SSE 9.2 mph - 0.01 in Rain Light Rain
1:35 PM 46.4 °F 41.9 °F 41.0 °F 81% 29.89 in 1.2 mi South 9.2 mph 21.9 mph 0.04 in Rain Rain
1:43 PM 46.4 °F 41.1 °F 41.0 °F 81% 29.88 in 2.0 mi SSE 11.5 mph 23.0 mph 0.05 in Rain Light Rain
1:53 PM 46.0 °F 40.6 °F 41.0 °F 83% 29.88 in 2.5 mi SSE 11.5 mph 21.9 mph 0.05 in Rain Light Rain
2:30 PM 44.6 °F 39.2 °F 39.2 °F 81% 29.86 in 1.8 mi SE 10.4 mph 21.9 mph 0.02 in Rain Light Rain
2:38 PM 46.4 °F 41.1 °F 39.2 °F 76% 29.85 in 2.5 mi SE 11.5 mph 18.4 mph 0.02 in Rain Light Rain
2:46 PM 44.6 °F 40.2 °F 41.0 °F 87% 29.85 in 4.0 mi SE 8.1 mph 18.4 mph 0.02 in Rain Light Rain
2:53 PM 45.0 °F 39.7 °F 41.0 °F 86% 29.85 in 1.8 mi SE 10.4 mph - 0.03 in Rain Light Rain
3:02 PM 44.6 °F 38.4 °F 41.0 °F 87% 29.85 in 1.2 mi SE 12.7 mph 21.9 mph 0.01 in Rain Light Rain
3:08 PM 44.6 °F 38.1 °F 39.2 °F 81% 29.85 in 2.0 mi SSE 13.8 mph 21.9 mph 0.02 in Rain Light Rain
3:29 PM 44.6 °F 39.7 °F 41.0 °F 87% 29.84 in 1.5 mi SE 9.2 mph 18.4 mph 0.03 in Rain Light Rain
3:40 PM 44.6 °F 38.4 °F 41.0 °F 87% 29.83 in 3.0 mi SE 12.7 mph 17.3 mph 0.04 in Rain Light Rain
3:50 PM 44.6 °F 39.2 °F 41.0 °F 87% 29.82 in 2.5 mi SE 10.4 mph 17.3 mph 0.05 in Rain Light Rain
3:53 PM 45.0 °F 40.6 °F 41.0 °F 86% 29.83 in 2.5 mi SE 8.1 mph 17.3 mph 0.05 in Rain Light Rain
3:59 PM 44.6 °F 38.8 °F 41.0 °F 87% 29.82 in 1.8 mi SE 11.5 mph 21.9 mph 0.01 in Rain Rain
4:14 PM 44.6 °F 39.2 °F 41.0 °F 87% 29.81 in 1.5 mi SE 10.4 mph 18.4 mph 0.03 in Rain Light Rain
4:34 PM 46.4 °F 42.4 °F 41.0 °F 81% 29.80 in 2.5 mi SSE 8.1 mph 21.9 mph 0.06 in Rain Light Rain
4:51 PM 46.4 °F 40.4 °F 41.0 °F 81% 29.79 in 2.5 mi SE 13.8 mph 20.7 mph 0.08 in Rain Light Rain
4:53 PM 46.0 °F 41.0 °F 41.0 °F 83% 29.80 in 2.5 mi SE 10.4 mph 20.7 mph 0.08 in Rain Light Rain
5:03 PM 46.4 °F 41.5 °F 41.0 °F 81% 29.79 in 1.8 mi SSE 10.4 mph 23.0 mph 0.01 in Rain Light Rain
5:09 PM 44.6 °F 37.8 °F 41.0 °F 87% 29.79 in 1.2 mi SE 15.0 mph 23.0 mph 0.02 in Rain Light Rain
5:17 PM 46.4 °F 41.5 °F 41.0 °F 81% 29.78 in 1.8 mi SSE 10.4 mph 19.6 mph 0.04 in Rain Light Rain
5:25 PM 44.6 °F 38.8 °F 41.0 °F 87% 29.78 in 2.5 mi SE 11.5 mph 17.3 mph 0.05 in Rain Light Rain
5:34 PM 44.6 °F 40.2 °F 41.0 °F 87% 29.77 in 4.0 mi SSE 8.1 mph 19.6 mph 0.06 in Rain Light Rain
5:53 PM 46.0 °F 40.6 °F 41.0 °F 83% 29.77 in 6.0 mi SSE 11.5 mph 19.6 mph 0.07 in   Haze
6:04 PM 46.4 °F 40.4 °F 41.0 °F 81% 29.76 in 1.8 mi SE 13.8 mph 25.3 mph 0.00 in Rain Light Rain
6:13 PM 46.4 °F 41.1 °F 41.0 °F 81% 29.76 in 2.5 mi SE 11.5 mph 21.9 mph 0.00 in Rain Light Rain
6:23 PM 46.4 °F 41.1 °F 41.0 °F 81% 29.75 in 1.8 mi SE 11.5 mph 21.9 mph N/A Rain Light Rain
6:32 PM 46.4 °F 40.1 °F 41.0 °F 81% 29.74 in 2.0 mi SE 15.0 mph 24.2 mph 0.01 in Rain Light Rain
6:53 PM 46.0 °F 40.2 °F 41.0 °F 83% 29.73 in 2.0 mi SE 12.7 mph 25.3 mph 0.02 in Rain Light Rain
7:25 PM 46.4 °F 40.4 °F 42.8 °F 87% 29.72 in 5.0 mi SE 13.8 mph 25.3 mph 0.02 in Rain Light Rain
7:53 PM 46.0 °F 39.9 °F 42.1 °F 86% 29.70 in 3.0 mi SE 13.8 mph 24.2 mph 0.03 in Rain Light Rain
8:09 PM 46.4 °F 40.1 °F 42.8 °F 87% 29.69 in 4.0 mi SSE 15.0 mph 21.9 mph 0.00 in Rain Light Rain
8:34 PM 46.4 °F 40.4 °F 41.0 °F 81% 29.68 in 4.0 mi SE 13.8 mph 24.2 mph 0.01 in Rain Light Rain
8:53 PM 46.0 °F 39.6 °F 41.0 °F 83% 29.68 in 3.0 mi SE 15.0 mph 28.8 mph 0.02 in Rain Light Rain
9:32 PM 46.4 °F 39.5 °F 41.0 °F 81% 29.65 in 3.0 mi SE 17.3 mph 31.1 mph 0.04 in Rain Light Rain
9:40 PM 46.4 °F 40.4 °F 41.0 °F 81% 29.65 in 6.0 mi SE 13.8 mph 28.8 mph 0.04 in Rain Light Rain
9:53 PM 46.0 °F 39.9 °F 41.0 °F 83% 29.65 in 4.0 mi SE 13.8 mph 24.2 mph 0.04 in Rain Light Rain
10:12 PM 46.4 °F 40.7 °F 41.0 °F 81% 29.65 in 3.0 mi SSE 12.7 mph 26.5 mph 0.02 in Rain Light Rain
10:25 PM 46.4 °F 41.5 °F 41.0 °F 81% 29.66 in 2.5 mi SSE 10.4 mph 23.0 mph 0.03 in Rain Light Rain
10:31 PM 46.4 °F 39.0 °F 41.0 °F 81% 29.67 in 1.8 mi South 19.6 mph 31.1 mph 0.04 in Rain Rain
10:53 PM 43.0 °F 35.7 °F 39.0 °F 86% 29.70 in 1.5 mi SSW 15.0 mph 25.3 mph 0.14 in Rain Rain
11:16 PM 42.8 °F 39.3 °F 39.2 °F 87% 29.69 in 2.0 mi Variable 5.8 mph 19.6 mph 0.07 in Rain Light Rain
11:27 PM 42.8 °F 37.5 °F 39.2 °F 87% 29.69 in 3.0 mi SSE 9.2 mph 23.0 mph 0.08 in Rain Light Rain
11:39 PM 42.8 °F 37.0 °F 39.2 °F 87% 29.69 in 6.0 mi SSE 10.4 mph 23.0 mph 0.08 in   Mostly Cloudy
11:53 PM 43.0 °F 36.8 °F 37.9 °F 82% 29.69 in 5.0 mi SSE 11.5 mph 25.3 mph 0.08 in   Haze